Airfield :
LOGIN :

Register | Disclaimer

   EN    FR    IT 

 










Legend :    VFR   Marginal VFR   IFR   Intensive IFR   Very Intensive IFR
Visi :
Ceiling :
>= 8 km
>= 3000ft
5 to 8 km
1000 to 3000 ft
1500m to 5 km
500 to 1000 ft
800 to 1500m
200 to 500 ft
< 800m
< 200 ft
Symbols :   Thunderstorms  Fog  Heavy snow  Heavy precipitations  Wind > 20 kt
SIGMETs :     Misc.  Thunderstorms  Icing  Turbulence  Mountain Waves  Volcanic Ashes







- Airport Elevation : 83 ft
- IATA code : VOL


LGBL - Aghialos Volos

CURRENT METAR :
  • 241650Z VRB03KT CAVOK 25/18 Q1010

EXPIRED METARs :
  • 241620Z 00000KT CAVOK 26/19 Q1010
  • 241550Z VRB03KT CAVOK 27/18 Q1009
  • 241520Z 03004KT CAVOK 28/15 Q1010
  • 241450Z 07006KT CAVOK 28/15 Q1009
  • 241420Z 07006KT CAVOK 28/18 Q1010

TAF TAF LGBL
Valid from the 24 at 15:00 until the 25 at 00:00 UTC


241400Z 2415/2424 29008KT 9999 FEW025
BECMG 2418/2420 36015G30KT
No reported NOTAMs for that airfield.



MET'MAP, your aeronautical weather chart ! - Copyright ORBIFLY December 2007 - Disclaimer

ORBIFLY MET'MAP TEAM :

Programming & Development : Alexandra Zaïnal
Concept & Development : Baudouin d'Aumeries
Co-Development & Prog : Marc-Olivier Méhu
Technical & hardware support : Manuel Goepfert

Contact : metmap@orbifly.com




SOURCES & CREDITS :

   NOAA